Location: Bouchavesnes-Bergen
(49.9859°N, 2.9203°E)
Time: 03:57:34
(UTC+00:00)

Envisat - Pass Details

Date: 11 February 2023
Orbit: 763 x 765 km, 98.2° (Epoch: 30 March)

Event Time Altitude Azimuth Distance (km) Brightness Sun altitude
Rises 02:23:35 0° 30° (NNE) 3,244 6.9 -44.1°
Reaches altitude 10° 02:27:19 10° 58° (ENE) 2,310 6.1 -43.7°
Enters shadow 02:28:11 12° 68° (ENE) 2,187 5.9 -43.5°
